TimePST,TemperatureF,Dew PointF,Humidity,Sea Level PressureIn,VisibilityMPH,Wind Direction,Wind SpeedMPH,Gust SpeedMPH,PrecipitationIn,Events,Conditions,WindDirDegrees,DateUTC
12:15 AM,50.0,17.6,28,30.20,10.0,Calm,Calm,-,N/A,,Clear,0,2013-01-19 08:15:00
12:35 AM,50.0,19.4,30,30.20,10.0,ESE,3.5,-,N/A,,Clear,120,2013-01-19 08:35:00
12:55 AM,51.8,15.8,24,30.20,10.0,ESE,5.8,-,N/A,,Clear,110,2013-01-19 08:55:00
1:15 AM,53.6,12.2,19,30.20,10.0,Calm,Calm,-,N/A,,Clear,0,2013-01-19 09:15:00
1:35 AM,48.2,15.8,27,30.21,10.0,Calm,Calm,-,N/A,,Clear,0,2013-01-19 09:35:00
1:55 AM,50.0,12.2,22,30.22,10.0,Calm,Calm,-,N/A,,Clear,0,2013-01-19 09:55:00
2:15 AM,51.8,10.4,19,30.22,10.0,Calm,Calm,-,N/A,,Clear,0,2013-01-19 10:15:00
2:35 AM,51.8,10.4,19,30.22,10.0,Calm,Calm,-,N/A,,Clear,0,2013-01-19 10:35:00
2:55 AM,51.8,12.2,21,30.22,10.0,Calm,Calm,-,N/A,,Clear,0,2013-01-19 10:55:00
3:15 AM,50.0,10.4,20,30.23,10.0,Calm,Calm,-,N/A,,Clear,0,2013-01-19 11:15:00
3:35 AM,51.8,8.6,18,30.22,10.0,Calm,Calm,-,N/A,,Clear,0,2013-01-19 11:35:00
3:55 AM,50.0,6.8,17,30.23,10.0,Calm,Calm,-,N/A,,Clear,0,2013-01-19 11:55:00
4:15 AM,50.0,6.8,17,30.23,10.0,Calm,Calm,-,N/A,,Clear,0,2013-01-19 12:15:00
4:35 AM,50.0,10.4,20,30.23,10.0,Calm,Calm,-,N/A,,Clear,0,2013-01-19 12:35:00
4:55 AM,50.0,10.4,20,30.23,10.0,Calm,Calm,-,N/A,,Clear,0,2013-01-19 12:55:00
5:15 AM,50.0,12.2,22,30.23,10.0,Calm,Calm,-,N/A,,Clear,0,2013-01-19 13:15:00
5:35 AM,48.2,12.2,24,30.23,10.0,Calm,Calm,-,N/A,,Clear,0,2013-01-19 13:35:00
5:55 AM,48.2,10.4,22,30.24,10.0,East,4.6,-,N/A,,Clear,100,2013-01-19 13:55:00
6:15 AM,50.0,5.0,16,30.24,10.0,Calm,Calm,-,N/A,,Clear,0,2013-01-19 14:15:00
6:35 AM,50.0,5.0,16,30.24,10.0,Calm,Calm,-,N/A,,Clear,0,2013-01-19 14:35:00
6:55 AM,50.0,5.0,16,30.25,10.0,Calm,Calm,-,N/A,,Clear,0,2013-01-19 14:55:00
7:35 AM,48.2,6.8,19,30.25,10.0,Calm,Calm,-,N/A,,Clear,0,2013-01-19 15:35:00
7:55 AM,48.2,8.6,20,30.26,10.0,Calm,Calm,-,N/A,,Clear,0,2013-01-19 15:55:00
8:15 AM,50.0,8.6,19,30.26,10.0,Calm,Calm,-,N/A,,Clear,0,2013-01-19 16:15:00
8:35 AM,53.6,10.4,18,30.27,10.0,Calm,Calm,-,N/A,,Clear,0,2013-01-19 16:35:00
8:55 AM,55.4,6.8,14,30.27,10.0,Calm,Calm,-,N/A,,Clear,0,2013-01-19 16:55:00
9:15 AM,55.4,17.6,23,30.28,10.0,Calm,Calm,-,N/A,,Clear,0,2013-01-19 17:15:00
9:35 AM,57.2,19.4,23,30.28,10.0,Calm,Calm,-,N/A,,Clear,0,2013-01-19 17:35:00
9:55 AM,57.2,19.4,23,30.29,10.0,Calm,Calm,-,N/A,,Clear,0,2013-01-19 17:55:00
10:05 AM,57.2,19.4,23,30.29,10.0,SSE,3.5,-,N/A,,Clear,150,2013-01-19 18:05:00
2:15 PM,62.6,24.8,24,30.22,10.0,Calm,Calm,-,N/A,,Clear,0,2013-01-19 22:15:00
2:35 PM,62.6,24.8,24,30.22,10.0,Calm,Calm,-,N/A,,Clear,0,2013-01-19 22:35:00
2:55 PM,62.6,24.8,24,30.21,10.0,WNW,3.5,-,N/A,,Clear,290,2013-01-19 22:55:00
3:15 PM,60.8,24.8,25,30.21,10.0,WNW,4.6,-,N/A,,Clear,290,2013-01-19 23:15:00
3:35 PM,60.8,24.8,25,30.21,10.0,WNW,4.6,-,N/A,,Clear,300,2013-01-19 23:35:00
3:55 PM,59.0,24.8,27,30.21,10.0,Calm,Calm,-,N/A,,Clear,0,2013-01-19 23:55:00
4:15 PM,59.0,26.6,29,30.22,10.0,Calm,Calm,-,N/A,,Clear,0,2013-01-20 00:15:00
4:35 PM,59.0,28.4,31,30.22,10.0,Calm,Calm,-,N/A,,Clear,0,2013-01-20 00:35:00
4:55 PM,55.4,28.4,36,30.22,10.0,Calm,Calm,-,N/A,,Clear,0,2013-01-20 00:55:00
5:15 PM,51.8,32.0,47,30.21,10.0,Calm,Calm,-,N/A,,Clear,0,2013-01-20 01:15:00
5:35 PM,50.0,32.0,50,30.21,10.0,Calm,Calm,-,N/A,,Clear,0,2013-01-20 01:35:00
5:55 PM,50.0,30.2,47,30.22,10.0,Calm,Calm,-,N/A,,Clear,0,2013-01-20 01:55:00
6:15 PM,50.0,28.4,43,30.22,10.0,Calm,Calm,-,N/A,,Clear,0,2013-01-20 02:15:00
6:55 PM,50.0,28.4,43,30.22,10.0,Calm,Calm,-,N/A,,Clear,0,2013-01-20 02:55:00
7:10 PM,50.0,26.6,40,30.22,10.0,Calm,Calm,-,N/A,,Clear,0,2013-01-20 03:10:00
7:35 PM,50.0,26.6,40,30.23,10.0,Calm,Calm,-,N/A,,Clear,0,2013-01-20 03:35:00
7:55 PM,50.0,26.6,40,30.23,10.0,Calm,Calm,-,N/A,,Clear,0,2013-01-20 03:55:00
8:15 PM,50.0,26.6,40,30.23,10.0,Calm,Calm,-,N/A,,Clear,0,2013-01-20 04:15:00
8:35 PM,50.0,26.6,40,30.23,10.0,Calm,Calm,-,N/A,,Clear,0,2013-01-20 04:35:00
8:55 PM,50.0,26.6,40,30.24,10.0,Calm,Calm,-,N/A,,Clear,0,2013-01-20 04:55:00
9:15 PM,50.0,26.6,40,30.24,10.0,Calm,Calm,-,N/A,,Clear,0,2013-01-20 05:15:00
9:35 PM,50.0,26.6,40,30.25,10.0,Calm,Calm,-,N/A,,Clear,0,2013-01-20 05:35:00
9:55 PM,50.0,26.6,40,30.25,10.0,Calm,Calm,-,N/A,,Clear,0,2013-01-20 05:55:00
10:15 PM,50.0,26.6,40,30.25,10.0,Calm,Calm,-,N/A,,Clear,0,2013-01-20 06:15:00
10:35 PM,50.0,26.6,40,30.26,10.0,Calm,Calm,-,N/A,,Clear,0,2013-01-20 06:35:00
10:55 PM,50.0,24.8,37,30.26,10.0,Calm,Calm,-,N/A,,Clear,0,2013-01-20 06:55:00
11:15 PM,50.0,24.8,37,30.26,10.0,Calm,Calm,-,N/A,,Clear,0,2013-01-20 07:15:00
11:35 PM,50.0,24.8,37,30.26,10.0,Calm,Calm,-,N/A,,Clear,0,2013-01-20 07:35:00
11:55 PM,50.0,24.8,37,30.26,10.0,Calm,Calm,-,N/A,,Clear,0,2013-01-20 07:55:00